Location: Alexandria
(38.8050°N, 77.0470°W)
Time: 16:46:13
(UTC-05:00)

Vanguard 2 Rocket - Visible Passes

Search period start: 23 January 2018 00:00
Search period end: 02 February 2018 00:00
Orbit: 556 x 3326 km, 32.9° (Epoch: 22 January)

Date Brightness Start Highest point End Pass type
(mag) Time Alt. Az. Time Alt. Az. Time Alt. Az.
23 Jan 10.8 03:32:23 10° S 03:40:53 15° SE 03:47:55 10° ESE visible
23 Jan 9.8 05:42:58 10° SW 05:56:32 35° SSE 06:05:09 10° E visible
24 Jan 11.0 02:38:11 10° SSE 02:40:04 10° SE 02:41:53 10° SE visible
24 Jan 10.1 04:42:10 10° SSW 04:56:01 30° SSE 05:05:30 10° E visible
25 Jan 10.4 03:42:04 10° SSW 03:55:15 24° SSE 04:05:11 10° ESE visible
25 Jan 9.4 05:55:54 10° SW 06:11:01 46° SSE 06:20:07 10° E visible
26 Jan 10.7 02:44:27 12° S 02:54:22 19° SE 03:03:43 10° ESE visible
26 Jan 9.7 04:54:29 10° SW 05:10:24 40° SSE 05:20:45 10° E visible
27 Jan 10.9 01:50:10 12° SSE 01:53:26 13° SE 01:59:46 10° ESE visible
27 Jan 10.0 03:56:07 15° SSW 04:09:33 34° SSE 04:20:54 10° E visible
27 Jan 9.2 06:09:23 10° WSW 06:25:28 56° SSE 06:34:52 10° E visible
28 Jan 10.3 03:01:21 22° S 03:08:32 28° SSE 03:20:21 10° E visible
28 Jan 9.5 05:07:31 10° SW 05:24:47 51° SSE 05:35:37 10° E visible
29 Jan 10.6 02:06:17 21° SE 02:07:30 21° SE 02:18:43 10° E visible
29 Jan 9.7 04:12:10 23° SSW 04:23:48 45° SSE 04:36:00 10° E visible
29 Jan 9.1 06:23:16 10° WSW 06:39:54 63° S 06:49:29 10° E visible
30 Jan 10.9 01:10:57 13° ESE 01:10:57 13° ESE 01:14:57 10° ESE visible
30 Jan 10.0 03:16:49 32° S 03:22:39 38° SSE 03:35:52 10° E visible
30 Jan 9.3 05:22:41 13° WSW 05:39:09 60° SSE 05:50:18 10° E visible
31 Jan 10.2 02:21:16 31° SE 02:21:26 31° SE 02:35:00 10° E visible
31 Jan 9.5 04:27:07 28° SW 04:38:04 55° SSE 04:50:46 10° E visible
31 Jan 9.0 06:37:25 10° WSW 06:54:20 67° S 07:04:03 10° E visible
01 Feb 10.6 01:25:33 21° ESE 01:25:33 21° ESE 01:33:03 10° E visible
01 Feb 9.7 03:31:23 41° S 03:36:44 48° SSE 03:50:50 10° E visible
01 Feb 9.2 05:37:14 15° WSW 05:53:32 67° S 06:04:53 10° E visible
